Atlantic - Newfoundland: Past 24 Hour Conditions

 

J.A. Douglas McCurdy Sydney Airport

07:00 PM ADT 24 April 2014
This table is a summary of hourly weather conditions for the past 24 hours.
Date / Time
(ADT)
Wind(knots) Conditions Visibility(km) Pressure(kPa) Air tempC) Relative humidity(%) Dew pointC)
24 April 2014
19:00 NE 16 gust 22 Light Drizzle 6 99.8 1 83 -1
18:00 NE 18 gust 25 Cloudy 13 99.8 2 79 -2
17:00 NE 16 gust 28 Cloudy 13 99.7 2 80 -2
16:00 ENE 15 gust 25 Cloudy 13 99.8 1 82 -1
15:00 ENE 19 gust 28 Cloudy 13 99.8 2 79 -1
14:00 ENE 20 gust 26 Cloudy 13 99.9 2 81 -1
13:00 ENE 23 Cloudy 13 99.9 1 76 -2
12:00 ENE 19 gust 28 Cloudy 13 99.9 1 77 -2
11:00 E 18 gust 28 Cloudy 13 100.0 1 77 -2
10:00 E 18 gust 26 Cloudy 13 100.0 1 77 -2
9:00 E 19 gust 29 Cloudy 13 100.0 1 76 -2
8:00 E 18 gust 25 Cloudy 13 100.0 1 77 -2
7:00 E 13 gust 21 Cloudy 13 100.0 1 79 -2
6:00 E 14 gust 19 Fog 10 100.0 1 82 -2
5:00 E 13 gust 19 Cloudy 16 100.0 1 82 -2
4:00 E 14 gust 21 Cloudy 16 100.0 1 83 -1
3:00 E 12 gust 19 Fog 10 100.0 1 86 -1
2:00 E 12 gust 20 Fog 10 100.1 2 83 -1
1:00 E 13 gust 18 Fog 6 100.1 2 89 0
0:00 ENE 12 gust 17 Fog 10 100.2 3 84 1
23 April 2014
23:00 E 9 Fog 10 100.2 3 88 1
22:00 ENE 8 Fog 10 100.3 3 87 1
21:00 ENE 8 Fog 10 100.3 4 86 2
20:00 ENE 8 Fog 6 100.3 3 87 1
19:00 E 10 Fog 6 100.3 3 88 1
 
Map of Atlantic - Newfoundland marine weather areas Southwestern Grand Banks - 44138 Banquereau - 44139 Tail of the Bank - 44140 Nickerson Bank - 44251 Northeast Burgeo Bank - 44255 Blanc-Sablon Airport Cap Whittle Chevery Natashquan Airport Heath Point Miscou Island Grand Étang Ingonish Beach North Mountain St.Paul Island J.A. Douglas McCurdy Sydney Airport Charlottetown Airport East Point North Cape Argentia Bonavista Burgeo Cape Race Corner Brook Daniel's Harbour Englee Ferolle Point La Scie Port aux Basques Rocky Harbour Sagona Island St. Anthony Airport St. John's Int'l Airport St. Lawrence Stephenville Airport Twillingate Winterland Wreckhouse Cartwright Airport Mary's Harbour Grates Cove Pool's Island Marticot Island Long Pond Îles de la Madeleine Airport
Legend: buoyBuoy land stationLand Station